[[{"header":{"parameterUnit":"m.s-1","parameterCategory":1,"la1":30.2991,"la2":30.254,"lo1":-89.0895,"lo2":-89.0444,"dy":0.0017,"dx":0.0017,"nx":28,"ny":28,"refTime":"2024-07-24T21:00:00:Z","depth":0,"parameterNumber":2,"parameterNumberName":"U-component_of_WINDS"},"data":[0,0,0,0,0,0,0,0,0,0,0,0,0,0,0,0,0,0,0,0,0,0,0,0,0,0,0,0,0,0,0,0,0,0,0,0,0,0,0,0,0,0,0,0,0,0,0,0,0,0,0,0,0,0,0,0,0,0,-1.3073,-1.3071,0,-1.2948,-1.2947,-1.2945,-1.29,-1.2901,-1.2901,-1.2902,-1.2768,-1.2764,-1.276,0,0,0,0,0,0,0,0,0,0,0,0,0,-1.3268,-1.3264,-1.3073,-1.3071,-1.307,-1.2948,-1.2946,-1.2945,-1.29,-1.2901,-1.2901,-1.2902,-1.277,-1.2765,-1.276,0,0,0,0,0,0,0,0,0,0,0,0,0,-1.3167,-1.3263,-1.3073,-1.3033,-1.3028,-1.2949,-1.2946,-1.2944,-1.29,-1.2901,-1.2902,-1.2902,-1.2771,-1.2765,-1.2759,-1.2709,0,0,-1.2741,-1.2739,0,0,0,0,0,0,0,0,-1.3173,-1.316,-1.3041,-1.3036,-1.303,-1.2941,-1.2966,-1.2865,-1.29,-1.2949,-1.2902,-1.2903,-1.2825,-1.2814,-1.2789,-1.2702,-1.2697,-1.2741,-1.2737,-1.2734,-1.2733,0,0,0,0,0,0,0,-1.318,-1.3165,-1.3023,-1.3039,-1.3032,-1.302,-1.3006,-1.2947,-1.2884,-1.2944,-1.2941,-1.2927,-1.2822,-1.2795,-1.2786,-1.2695,-1.2741,-1.2736,-1.2732,-1.2729,-1.2559,-1.2559,0,0,0,0,0,0,-1.3194,-1.3171,-1.3027,-1.302,-1.3105,-1.3016,-1.3,-1.2969,-1.2885,-1.2873,-1.2927,-1.2925,-1.2805,-1.2793,-1.2781,-1.2716,-1.2735,-1.2729,-1.2725,-1.256,-1.2559,-1.2558,0,0,0,0,0,0,-1.3199,-1.3182,-1.3032,-1.3094,-1.3074,-1.3012,-1.2976,-1.2966,-1.2939,-1.2871,-1.2859,-1.2911,-1.2805,-1.2789,-1.2727,-1.271,-1.2726,-1.2721,-1.2561,-1.256,-1.2559,-1.2585,0,0,0,0,0,0,-1.3204,-1.3184,-1.3165,-1.3094,-1.3071,-1.2982,-1.2975,-1.2963,-1.2929,-1.2927,-1.2854,-1.2842,-1.2804,-1.2736,-1.2721,-1.2702,-1.2716,-1.2563,-1.2561,-1.2559,-1.2585,-1.2585,-1.2584,0,0,0,0,0,-1.3211,-1.3176,-1.3164,-1.3147,-1.3047,-1.2982,-1.2968,-1.2927,-1.2928,-1.2908,-1.2865,-1.2844,-1.2715,-1.2731,-1.2713,-1.2692,-1.2564,-1.2561,-1.2559,-1.2586,-1.2585,-1.2584,0,0,0,0,0,0,-1.3244,-1.3166,-1.3152,-1.3093,-1.3045,-1.2974,-1.2947,-1.2928,-1.2876,-1.2876,-1.2825,-1.2809,-1.2751,-1.2715,-1.2734,-1.2638,-1.2638,-1.2632,-1.2664,-1.2662,-1.2662,-1.2671,-1.2711,0,0,0,0,0,-1.3245,-1.32,-1.3134,-1.3088,-1.3065,-1.3011,-1.2981,-1.2954,-1.29,-1.2879,-1.2831,-1.2779,-1.2726,-1.2692,-1.264,-1.258,-1.2563,-1.2557,-1.2557,-1.2556,-1.2552,-1.2517,-1.2513,-1.2551,-1.2551,-1.2551,0,0,-1.3245,-1.3197,-1.3172,-1.3094,-1.3053,-1.3006,-1.2993,-1.2944,-1.2909,-1.2871,-1.281,-1.2773,-1.2711,-1.265,-1.262,-1.2618,-1.2538,-1.2554,-1.2554,-1.2549,-1.2514,-1.2511,-1.2507,-1.255,-1.255,-1.255,0,0,-1.3222,-1.3182,-1.3139,-1.3099,-1.3038,-1.3002,-1.2993,-1.2925,-1.29,-1.2838,-1.2809,-1.2765,-1.2676,-1.2633,-1.2599,-1.2561,-1.2539,-1.2545,-1.2541,-1.2508,-1.2505,-1.2502,-1.2487,-1.2482,-1.2541,-1.2541,-1.2541,0,-1.3229,-1.316,-1.3119,-1.3072,-1.3038,-1.3004,-1.296,-1.2922,-1.2847,-1.2823,-1.2822,-1.271,-1.2666,-1.2594,-1.2585,-1.2559,-1.2545,-1.2552,-1.2509,-1.2505,-1.2502,-1.2487,-1.2482,-1.2542,-1.2542,-1.2541,-1.2541,0,-1.3172,-1.3124,-1.3096,-1.3027,-1.299,-1.2944,-1.2895,-1.2862,-1.2839,-1.2803,-1.274,-1.2686,-1.2623,-1.2604,-1.2579,-1.2528,-1.2528,-1.2519,-1.2517,-1.25,-1.2485,-1.2479,-1.2543,-1.2543,-1.2542,-1.2542,0,0,-1.3164,-1.3074,-1.3064,-1.3032,-1.2963,-1.2924,-1.2877,-1.2817,-1.2789,-1.2738,-1.2696,-1.2622,-1.2613,-1.2575,-1.2545,-1.2516,-1.2488,-1.251,-1.2507,-1.2507,-1.2427,-1.2434,-1.2429,-1.2474,-1.2473,-1.2472,-1.2432,0,-1.3131,-1.3047,-1.301,-1.2942,-1.2896,-1.2863,-1.2822,-1.2774,-1.2739,-1.2694,-1.2655,-1.2603,-1.2595,-1.2572,-1.2542,-1.2498,-1.2471,-1.25,-1.2433,-1.2431,-1.2449,-1.2421,-1.2428,-1.2393,-1.2426,-1.2425,-1.2424,0,-1.3081,-1.3033,-1.2961,-1.2897,-1.2877,-1.284,-1.2782,-1.274,-1.2685,-1.2661,-1.262,-1.2592,-1.2539,-1.2542,-1.2468,-1.2488,-1.2458,-1.2433,-1.243,-1.2421,-1.2426,-1.241,-1.2381,-1.2375,-1.2415,-1.2416,-1.2417,0,-1.3083,-1.2999,-1.2945,-1.2919,-1.2843,-1.2818,-1.2785,-1.2731,-1.2697,-1.2646,-1.2623,-1.2565,-1.2534,-1.2489,-1.2445,-1.2452,-1.2375,-1.2374,-1.2352,-1.2353,-1.2337,-1.2338,-1.2301,-1.2319,-1.2319,-1.2319,-1.232,0,-1.3049,-1.3006,-1.2945,-1.2911,-1.2862,-1.2819,-1.277,-1.2735,-1.2687,-1.2645,-1.2612,-1.2573,-1.2519,-1.2472,-1.2437,-1.2381,-1.2366,-1.2345,-1.2336,-1.2347,-1.235,-1.2326,-1.2327,-1.2318,-1.2318,-1.2319,-1.2319,0,-1.3042,-1.2999,-1.2938,-1.2872,-1.2855,-1.2821,-1.2764,-1.2729,-1.2694,-1.2641,-1.2626,-1.2569,-1.2512,-1.2465,-1.239,-1.2367,-1.2308,-1.2298,-1.2327,-1.2322,-1.2303,-1.2305,-1.2248,-1.2238,-1.2264,-1.2264,-1.2264,0,-1.3023,-1.2989,-1.2921,-1.2891,-1.286,-1.2812,-1.2778,-1.2734,-1.27,-1.2634,-1.2607,-1.2549,-1.25,-1.2411,-1.2362,-1.2304,-1.2292,-1.2276,-1.2283,-1.2295,-1.229,-1.2293,-1.2288,-1.2275,-1.2275,-1.2275,-1.2275,0,-1.2993,-1.2974,-1.2928,-1.2873,-1.2834,-1.2789,-1.2742,-1.272,-1.2667,-1.2629,-1.2572,-1.2535,-1.2459,-1.2401,-1.2339,-1.2302,-1.2279,-1.2274,-1.2265,-1.2276,-1.2294,-1.2283,-1.2325,-1.2275,-1.2275,-1.2275,-1.2275,-1.2275,-1.2979,-1.2947,-1.2895,-1.2843,-1.2804,-1.2762,-1.2727,-1.2687,-1.264,-1.2576,-1.2553,-1.2494,-1.2439,-1.2353,-1.2317,-1.2269,-1.2266,-1.2254,-1.2251,-1.2248,-1.2249,-1.2303,-1.2257,-1.2257,-1.2257,-1.2257,-1.2257,0,-1.2947,-1.2912,-1.2865,-1.2803,-1.2762,-1.2747,-1.2694,-1.2661,-1.2611,-1.2562,-1.2515,-1.2449,-1.2393,-1.234,-1.228,-1.2252,-1.224,-1.2238,-1.2239,-1.2231,-1.2256,-1.2269,-1.2249,-1.2249,-1.2249,-1.2249,-1.2249,-1.2249,-1.2926,-1.2872,-1.2847,-1.2773,-1.2737,-1.2681,-1.2652,-1.2613,-1.2574,-1.2502,-1.2456,-1.2423,-1.2372,-1.2309,-1.2256,-1.2241,-1.222,-1.2221,-1.2204,-1.2228,-1.2229,-1.223,-1.2242,-1.2217,-1.2217,-1.2182,-1.2182,-1.2182]},{"header":{"parameterUnit":"m.s-1","parameterCategory":1,"la1":30.2991,"la2":30.254,"lo1":-89.0895,"lo2":-89.0444,"dy":0.0017,"dx":0.0017,"nx":28,"ny":28,"refTime":"2024-07-24T21:00:00:Z","depth":0,"parameterNumber":3,"parameterNumberName":"V-component_of_WINDS"},"data":[0,0,0,0,0,0,0,0,0,0,0,0,0,0,0,0,0,0,0,0,0,0,0,0,0,0,0,0,0,0,0,0,0,0,0,0,0,0,0,0,0,0,0,0,0,0,0,0,0,0,0,0,0,0,0,0,0,0,3.2989,3.2987,0,3.2818,3.2816,3.2814,3.269,3.2689,3.2688,3.2687,3.2506,3.2503,3.2499,0,0,0,0,0,0,0,0,0,0,0,0,0,3.3205,3.3202,3.2989,3.2987,3.2985,3.2818,3.2816,3.2813,3.269,3.2689,3.2688,3.2687,3.2508,3.2503,3.2499,0,0,0,0,0,0,0,0,0,0,0,0,0,3.308,3.3201,3.2989,3.2903,3.2894,3.2818,3.2816,3.2813,3.269,3.2689,3.2687,3.2686,3.2509,3.2504,3.2498,3.2493,0,0,3.248,3.2478,0,0,0,0,0,0,0,0,3.3088,3.3072,3.2918,3.2909,3.2898,3.2774,3.2825,3.2705,3.2691,3.2768,3.2687,3.2685,3.2596,3.2583,3.2554,3.2484,3.2477,3.248,3.2476,3.2474,3.2472,0,0,0,0,0,0,0,3.3096,3.3079,3.2921,3.2916,3.2904,3.2872,3.2852,3.2802,3.2692,3.2761,3.2751,3.2733,3.2591,3.256,3.2549,3.2474,3.248,3.2475,3.2471,3.2469,3.2391,3.2392,0,0,0,0,0,0,3.3119,3.3087,3.2926,3.2916,3.2991,3.2869,3.2847,3.2815,3.2693,3.2673,3.2735,3.2728,3.2571,3.2556,3.2542,3.2528,3.2474,3.2468,3.2465,3.2389,3.2391,3.2393,0,0,0,0,0,0,3.3124,3.3106,3.2933,3.2999,3.2975,3.2867,3.2832,3.2813,3.2782,3.2673,3.2652,3.2724,3.2569,3.255,3.2506,3.252,3.2466,3.246,3.2388,3.239,3.2392,3.2499,0,0,0,0,0,0,3.3131,3.3109,3.3106,3.3,3.2972,3.2902,3.2833,3.281,3.2773,3.2763,3.2657,3.2638,3.2566,3.2516,3.2501,3.2511,3.2456,3.2386,3.2389,3.2391,3.2494,3.2505,3.2514,0,0,0,0,0,3.3139,3.3142,3.3107,3.3088,3.2967,3.2903,3.2886,3.2805,3.2775,3.2771,3.2701,3.2642,3.2521,3.2512,3.2494,3.2503,3.2385,3.2388,3.2391,3.249,3.2503,3.2514,0,0,0,0,0,0,3.3251,3.3127,3.3086,3.3055,3.2991,3.2882,3.2875,3.2821,3.2763,3.2755,3.2655,3.2632,3.2599,3.2546,3.2538,3.2491,3.2446,3.2445,3.2527,3.2538,3.2548,3.2561,3.2451,0,0,0,0,0,3.3273,3.3233,3.3125,3.3109,3.3079,3.2983,3.2952,3.2895,3.2823,3.2795,3.2721,3.2653,3.2599,3.2566,3.2511,3.2487,3.2461,3.2484,3.2494,3.2503,3.2503,3.2486,3.2494,3.2403,3.2403,3.2403,0,0,3.3316,3.3243,3.3223,3.3129,3.3073,3.3032,3.296,3.292,3.2889,3.2788,3.2742,3.2687,3.2603,3.2569,3.255,3.2524,3.2523,3.2507,3.2514,3.2509,3.249,3.2499,3.2506,3.2405,3.2405,3.2404,0,0,3.3373,3.3315,3.3294,3.324,3.3156,3.3092,3.3088,3.2987,3.2947,3.29,3.2824,3.2784,3.2694,3.2638,3.2598,3.2637,3.258,3.2622,3.2673,3.2658,3.2665,3.2671,3.2684,3.269,3.2623,3.2623,3.2623,0,3.3437,3.3374,3.329,3.3255,3.3216,3.3125,3.3103,3.3053,3.2955,3.2929,3.2902,3.2788,3.2726,3.2677,3.2687,3.2658,3.2648,3.2632,3.2671,3.2676,3.268,3.2691,3.2697,3.2628,3.2628,3.2627,3.2627,0,3.3457,3.3414,3.3408,3.3317,3.3277,3.3249,3.3159,3.3128,3.3076,3.3015,3.2968,3.289,3.2818,3.2802,3.275,3.2746,3.2733,3.269,3.2642,3.2696,3.2705,3.2708,3.2636,3.2634,3.2633,3.2631,0,0,3.3578,3.3443,3.3442,3.34,3.3301,3.3266,3.3234,3.3165,3.314,3.3076,3.3045,3.2972,3.2932,3.2887,3.2827,3.2814,3.2849,3.2772,3.2768,3.2788,3.2839,3.2872,3.2878,3.2811,3.2812,3.2812,3.2846,0,3.362,3.3558,3.3482,3.3445,3.3404,3.3319,3.329,3.3226,3.3169,3.3125,3.3061,3.3011,3.2962,3.2934,3.2917,3.2848,3.2857,3.2845,3.278,3.2779,3.2802,3.2883,3.2916,3.2952,3.2849,3.285,3.285,0,3.3659,3.3602,3.3562,3.3468,3.3448,3.3424,3.3354,3.3314,3.324,3.3199,3.315,3.3086,3.3046,3.3005,3.2948,3.2941,3.291,3.2872,3.2872,3.2861,3.2817,3.2874,3.2962,3.2967,3.2855,3.2854,3.2854,0,3.3751,3.3663,3.3628,3.3595,3.3484,3.3469,3.3422,3.3346,3.331,3.3249,3.3225,3.316,3.3124,3.3075,3.2995,3.2973,3.2947,3.2898,3.291,3.2912,3.2907,3.2908,3.2991,3.289,3.289,3.289,3.289,0,3.3805,3.3783,3.3668,3.3646,3.362,3.3532,3.3508,3.3453,3.3386,3.3351,3.3273,3.3242,3.3139,3.3095,3.3033,3.2995,3.2979,3.2944,3.2927,3.295,3.2955,3.2928,3.2923,3.2891,3.2891,3.289,3.289,0,3.3902,3.3824,3.378,3.368,3.3654,3.3639,3.3552,3.3527,3.3466,3.3423,3.3408,3.3312,3.3256,3.3173,3.3091,3.3049,3.3021,3.2994,3.3047,3.3037,3.3053,3.3053,3.312,3.3124,3.3023,3.3024,3.3025,0,3.3941,3.3923,3.3821,3.3793,3.375,3.3705,3.3668,3.3582,3.3546,3.3461,3.3446,3.3385,3.3332,3.3247,3.3169,3.3106,3.3077,3.3105,3.3067,3.3091,3.3076,3.3078,3.3076,3.3114,3.3115,3.3117,3.3118,0,3.4018,3.398,3.3931,3.3869,3.3828,3.3774,3.3717,3.3698,3.3598,3.3563,3.3506,3.3465,3.3383,3.3323,3.3251,3.32,3.3142,3.3131,3.313,3.3153,3.3184,3.3166,3.307,3.3129,3.3128,3.3127,3.3126,3.3126,3.4086,3.4066,3.3992,3.394,3.3888,3.3836,3.3808,3.3745,3.3697,3.3625,3.3577,3.3523,3.3449,3.3345,3.3298,3.3254,3.3229,3.3228,3.3228,3.3229,3.3237,3.3192,3.324,3.324,3.324,3.3239,3.3239,0,3.4158,3.4107,3.406,3.3983,3.3942,3.3894,3.3828,3.3796,3.375,3.3687,3.3637,3.3572,3.3514,3.3432,3.3368,3.3348,3.332,3.3334,3.3334,3.3323,3.3263,3.327,3.3358,3.3358,3.3358,3.3358,3.3358,3.3358,3.4191,3.4155,3.4109,3.4046,3.3994,3.3942,3.3909,3.386,3.381,3.3741,3.3694,3.3642,3.3571,3.3501,3.3445,3.3422,3.3402,3.3424,3.3393,3.3338,3.3327,3.3317,3.3323,3.3421,3.3421,3.3457,3.3457,3.3457]}]]